Regional Weather Roundup
Issued by NWS Raleigh/Durham, NC

Home | Current Version | Previous Version | Text Only | Print | Product List | Glossary On
Versions: 1 2 3 4 5 6 7 8 9 10 11 12 13 14 15 16 17 18 19 20 21 22 23 24 25 26 27 28 29 30 31 32 33 34 35 36 37 38 39 40 41 42 43 44 45 46 47 48 49 50
000
ASUS42 KRAH 250610
RWRRAH
NORTH CAROLINA WEATHER ROUNDUP
NATIONAL WEATHER SERVICE RALEIGH NC
200 AM EDT SAT APR 25 2015

NOTE: "FAIR" INDICATES FEW OR NO CLOUDS BELOW 12,000 FEET WITH NO
SIGNIFICANT WEATHER AND/OR OBSTRUCTIONS TO VISIBILITY.

NCZ001-053-055-056-065-067-250700-
WESTERN NORTH CAROLINA

CITY           SKY/WX    TMP DP  RH WIND       PRES   REMARKS
ASHEVILLE      FAIR      51  38  60 NW6       29.94F
JEFFERSON      CLOUDY    49   5  16 CALM      29.94S
MORGANTON      CLOUDY    52  47  83 CALM      29.97F
HICKORY        CLOUDY    56  40  55 CALM      29.93F
RUTHERFORDTON  FAIR      55  41  59 CALM      29.93F
MOUNT AIRY     FAIR      49  38  65 CALM      29.94S
BOONE          MOCLDY    47  28  48 CALM      29.96S
$$

NCZ021-022-025-041-071-084-088-250700-
CENTRAL NORTH CAROLINA

CITY           SKY/WX    TMP DP  RH WIND       PRES   REMARKS
CHARLOTTE      MOCLDY    55  39  54 S6        29.94F
GREENSBORO     FAIR      51  35  54 SW5       29.91F
WINSTON-SALEM  FAIR      56  35  45 CALM      29.93F
RALEIGH-DURHAM MOCLDY    48  39  71 CALM      29.94F
FORT BRAGG     FAIR      56  38  49 SW3       29.93F
FAYETTEVILLE   FAIR      53  40  61 SW7       29.93F
BURLINGTON     FAIR      45  39  79 CALM      29.92F
LAURINBURG     FAIR      52  42  69 SW7       29.96F
$$

NCZ011-015-027-028-043-044-047-080-103-250700-
NORTHEASTERN NORTH CAROLINA

CITY           SKY/WX    TMP DP  RH WIND       PRES   REMARKS
ROCKY MT-WILSO FAIR      45  41  86 CALM      29.94F
GREENVILLE     FAIR      50  37  62 CALM      29.96F
WASHINGTON     FAIR      50  38  64 S3        29.95F
ELIZABETH CITY FAIR      51  45  79 SE5       29.93F
MANTEO         FAIR      49  44  81 SE5       29.95F
CAPE HATTERAS  FAIR      55  40  56 W9        29.95F
$$

NCZ078-087-090-091-093-098-101-250700-
SOUTHEASTERN NORTH CAROLINA

CITY           SKY/WX    TMP DP  RH WIND       PRES   REMARKS
LUMBERTON      FAIR      55  45  68 SW7       29.96S
GOLDSBORO      FAIR      52  40  64 CALM      29.92F
KINSTON        FAIR      50  41  71 S3        29.95F
KENANSVILLE    FAIR      45  42  90 CALM      29.96F
NEW BERN       FAIR      48  42  80 CALM      29.97F
CHERRY POINT   FAIR      47  43  86 CALM      29.97F
BEAUFORT       FAIR      59  50  72 SW6       29.96F
JACKSONVILLE   FAIR      52  44  74 SW3       29.96F
WILMINGTON     FAIR      57  48  72 SW5       29.97F
$$




USA.gov is the U.S. government's official web portal to all federal, state and local government web resources and services.